Location: Ballens
(46.5550°N, 6.3743°E)
Time: 10:59:16
(UTC+00:00)

Daily predictions for brighter satellites

Satellite Brightness Start Highest point End
(mag) Time Altitude Azimuth Time Altitude Azimuth Time Altitude Azimuth
BREEZE-M DEB (TANK) 3.4 19:26:50 10° SSW 19:29:53 42° SE 19:38:30 10° ENE
SL-16 R/B 2.8 19:35:08 10° NNW 19:40:35 45° NE 19:46:01 10° SE
ATLAS 5 CENTAUR R/B 4.3 19:40:28 10° NNW 19:43:38 16° NNE 19:47:06 10° ENE
Terra 4.0 19:42:20 10° ENE 19:44:05 12° NE 19:45:49 10° NE
RESURS DK-1 3.7 19:40:39 10° SW 19:44:39 46° WNW 19:48:42 10° NNE
Meteor 2-3 Rocket 4.2 19:41:20 10° SSE 19:46:37 42° E 19:52:00 10° NNE
Cosmos 332 Rocket 3.9 19:42:31 10° NNW 19:47:24 68° ENE 19:52:18 10° SSE
SPOT 3 Rocket 4.0 19:42:42 10° SE 19:47:42 48° ENE 19:52:43 10° N
Cosmos 1933 3.7 19:48:40 10° N 19:52:36 47° ENE 19:56:29 10° SSE
Cosmos 1271 Rocket 3.4 19:50:01 10° N 19:53:50 42° ENE 19:57:39 10° SSE
Gbstr 26 Del rocket 2.6 19:50:44 10° WNW 19:54:28 84° SSW 19:58:12 11° ESE
MOS 1 4.5 19:48:58 10° SSE 19:54:37 79° WSW 20:00:19 10° NNW
Cosmos 1538 Rocket 4.1 19:50:27 10° SSW 19:55:40 86° WNW 20:00:53 10° NNE
IRS-1A Rocket 4.4 19:50:35 10° SSE 19:56:05 79° WSW 20:01:38 10° NNW
OBJECT-B 3.1 19:54:21 10° SSW 19:57:01 24° W 19:59:42 10° NW
USA 186 4.5 19:58:49 10° SW 20:00:38 15° W 20:02:23 10° NW
SPOT 5 4.3 19:57:42 10° ESE 20:00:49 20° ENE 20:04:01 10° NNE
Cosmos 2098 Rocket 2.8 19:57:50 10° SSW 20:01:04 71° W 20:05:03 10° N
IGS 5A 3.4 19:56:57 10° SSE 20:01:05 77° ENE 20:05:14 10° N
ARIANE 5 R/B 4.0 19:58:58 11° ESE 20:02:26 24° ENE 20:06:01 10° N
Meteor 2-19 Rocket 4.4 19:56:29 10° S 20:02:27 66° E 20:08:28 10° NNE
Ariane Rocket 3.4 20:01:43 10° S 20:06:45 67° WSW 20:11:49 10° NNW
Landsat 7 3.8 20:03:29 10° SSE 20:08:14 80° ENE 20:13:01 10° NNW
Cosmos 1782 3.3 20:04:42 10° N 20:08:32 42° ENE 20:11:43 14° SE
Cosmos 2082 Rocket 3.7 20:07:12 10° SW 20:12:32 42° NW 20:17:55 10° NNE
Cosmos 304 Rocket 3.9 20:08:09 10° NNW 20:12:58 77° WSW 20:17:43 10° SSE
ATLAS 3B R/B 3.7 20:12:50 10° NW 20:19:33 46° WSW 20:26:31 10° S
Cosmos 2360 Rocket 2.9 20:14:17 10° NNW 20:19:39 42° NE 20:23:55 15° ESE
ATLAS 2AS CENTAUR R/B 4.4 20:14:12 10° WSW 20:21:37 42° NW 20:28:49 10° NNE
MetOp-B 4.1 20:18:48 10° SSE 20:24:05 84° ENE 20:29:28 10° NNW
Cosmos 1092 Rocket 4.0 20:19:56 10° S 20:26:13 85° E 20:32:35 10° N
ISS -1.6 20:27:58 10° W 20:30:16 17° SW 20:32:13 11° S
Cosmos 2151 3.6 20:26:58 10° SSW 20:31:09 57° WNW 20:35:22 10° N
NOSS 2-1 (C) 3.2 20:28:02 10° SSW 20:31:12 40° ESE 20:34:20 10° NE
ERS-2 3.3 20:30:54 10° N 20:34:24 44° WNW 20:37:51 10° SW
Cosmos 2026 Rocket 4.0 20:28:54 10° S 20:35:13 81° E 20:41:30 10° N
Cosmos 2084 3.2 20:32:42 10° SSW 20:36:42 64° SE 20:40:50 10° NE
COSMOS 2455 3.9 20:34:51 18° SE 20:37:16 23° ESE 20:41:54 10° NE
Cosmos 1812 3.2 20:34:53 10° N 20:38:37 45° ENE 20:40:31 25° SE
NOSS 2-1 (D) 2.9 20:35:42 10° SSW 20:38:56 50° SE 20:42:10 10° NE
GP-B 3.0 20:35:58 10° N 20:40:26 77° E 20:44:01 16° S
Cosmos 1980 Rocket 4.4 20:36:34 10° NW 20:40:34 20° W 20:44:34 10° SW
Cosmos 2333 Rocket 3.3 20:35:35 10° NNW 20:40:40 33° NE 20:44:24 16° ESE
Cosmos 923 Rocket 4.2 20:36:28 10° SSW 20:41:48 79° WNW 20:47:11 10° NNE
BREEZE-M DEB (TANK) 4.2 20:39:06 10° WNW 20:42:39 55° SSW 20:49:45 18° SE
SPOT 1/Viking Rocket 3.7 20:38:26 13° S 20:43:03 77° WSW 20:48:18 10° NNW
ERS-1 Rocket 3.3 20:40:25 21° SE 20:43:36 52° ENE 20:48:28 10° N
USA 245 3.6 20:42:07 17° SSE 20:45:49 85° WSW 20:49:43 10° NNW
SL-27 R/B 2.9 20:44:42 26° SSE 20:46:16 42° ESE 20:49:43 10° NNE
Okean 3 Rocket 3.5 20:48:05 14° S 20:51:54 80° E 20:56:27 10° N
USA 276 3.7 20:49:56 10° W 20:52:30 23° SW 20:53:10 21° SSW
Cosmos 2237 Rocket 4.4 20:49:45 10° N 20:52:48 14° NE 20:55:50 10° ENE
Cosmos 1408 Rocket 4.0 20:50:55 26° SE 20:52:50 42° E 20:56:56 10° NNE
Cosmos 2056 Rocket 3.5 20:47:43 10° NNW 20:53:06 78° ENE 20:56:16 25° SSE
Meteor 2-14 Rocket 4.5 20:48:52 15° S 20:53:59 64° E 21:00:04 10° NNE
Cosmos 2322 Rocket 2.3 20:48:29 10° NNW 20:54:06 70° WSW 20:57:55 21° SSE
CARTOSAT-1 3.6 20:59:31 23° S 21:02:07 75° WSW 21:06:28 10° NNW
Meteor 1-10 Rocket 4.3 20:58:50 10° N 21:04:20 62° ENE 21:07:16 28° SSE
Spot 2 Rocket 3.6 21:03:04 21° S 21:06:30 72° WSW 21:11:37 10° NNW
Cosmos 2219 Rocket 2.8 21:06:17 10° NNW 21:11:38 43° NE 21:14:26 25° ESE
Resurs 01 Rocket 3.8 21:10:13 10° SW 21:13:36 21° W 21:17:01 10° NW
Cosmos 1371 Rocket 4.3 21:09:34 10° NNW 21:14:54 64° WSW 21:17:55 26° S
BREEZE M DEB (TANK) 4.0 21:11:18 10° SW 21:15:14 61° SSE 21:39:23 10° ENE
Cosmos 1680 Rocket 4.2 21:10:42 10° SW 21:15:51 54° WNW 21:21:02 10° NNE
Cosmos 2112 Rocket 4.5 21:11:05 10° SSW 21:16:19 62° WNW 21:21:34 10° NNE
Cosmos 1515 Rocket 3.5 21:14:31 10° N 21:18:58 81° E 21:20:37 38° SSE
Cosmos 1151 Rocket 4.0 21:14:51 10° NNW 21:19:00 43° W 21:21:48 19° SSW
Terra 1.8 21:19:00 35° SSE 21:21:02 80° ENE 21:25:49 10° NNW
Cosmos 1553 Rocket 4.1 21:16:19 10° NNW 21:22:22 71° W 21:26:23 22° S
Cosmos 2266 Rocket 4.1 21:19:57 29° SSE 21:23:07 60° E 21:29:16 10° NNE
Cosmos 2285 Rocket 4.5 21:17:08 10° NNW 21:23:14 49° ENE 21:26:17 28° ESE
SL-16 R/B 3.5 21:19:34 10° NW 21:24:31 32° WSW 21:28:20 15° SSW
Cosmos 2315 Rocket 4.4 21:22:03 10° N 21:28:13 51° ENE 21:30:56 32° SE
ATLAS 5 CENTAUR R/B 3.0 21:24:19 10° NNW 21:29:30 45° NE 21:33:06 23° ESE
Cosmos 2333 4.1 21:25:20 10° NNW 21:30:58 82° ENE 21:33:17 37° SSE
Cosmos 2228 Rocket 3.5 21:30:07 10° N 21:34:24 48° ENE 21:35:16 41° ESE
NOSS 2-1 (E) 4.0 21:34:02 10° WSW 21:37:10 43° NW 21:40:31 10° NNE
SPOT 5 3.3 21:36:48 30° SSW 21:38:34 47° W 21:42:52 10° NNW
ARIANE 5 R/B 3.7 21:36:31 24° SSW 21:38:41 39° W 21:42:53 10° NNW
COSMOS 2428 3.0 21:33:39 10° NNW 21:39:17 57° ENE 21:41:31 35° ESE
Cosmos 1862 4.3 21:39:48 22° SW 21:41:59 44° WNW 21:45:49 10° N
Cosmos 883 Rocket 4.5 21:36:52 10° N 21:43:07 76° E 21:45:47 37° SSE
NOSS 3-1 (C) 4.1 21:37:24 10° NW 21:44:56 82° SW 21:49:23 33° SSE
Cosmos 292 Rocket 4.1 21:41:00 10° NNW 21:45:41 57° WSW 21:47:10 39° SSW
IRIDIUM 106 4.4 21:41:53 10° N 21:47:05 62° E 21:48:29 45° SE
Cosmos 1048 Rocket 4.1 21:48:39 47° SE 21:49:32 53° ESE 21:54:31 10° NNE
S3M 4.4 21:48:11 10° NNW 21:54:29 61° W 21:57:51 28° SSW
Cosmos 1655 Rocket 4.2 21:54:13 24° SSW 21:58:11 70° W 22:04:37 10° N
COSMOS 2487 2.6 22:00:10 65° N 22:00:10 65° N 22:03:08 10° NNE
ALOS 2 4.1 21:59:23 23° E 22:00:07 24° ENE 22:03:38 10° NNE
USA 229 DEB 3.9 21:53:32 10° NW 22:00:53 84° NE 22:04:27 36° SE
USA 229 3.9 21:53:37 10° NW 22:00:59 83° NE 22:04:33 36° SE
Cosmos 972 Rocket 3.9 21:59:17 42° SSW 22:01:07 86° ESE 22:06:08 10° NNE
Cosmos 1805 Rocket 3.4 22:02:11 66° SE 22:02:37 73° E 22:07:03 10° NNE
Cosmos 2360 Rocket 3.3 21:58:31 10° NW 22:03:32 34° WSW 22:05:41 25° SW
Cosmos 2084 Rocket 4.4 22:04:22 10° NNW 22:08:20 41° NE 22:09:18 35° ENE
USA 267 3.3 22:06:33 10° ENE 22:12:55 51° SE 22:14:47 40° S
Cosmos 1500 Rocket 4.3 22:11:54 36° SW 22:13:16 50° WNW 22:17:37 10° N
Cosmos 1980 4.4 22:10:11 10° NNW 22:15:38 45° NE 22:17:31 34° ESE
NOSS 0 Rocket 4.1 22:10:37 10° NNW 22:16:51 66° ENE 22:18:54 42° SE
NOSS 3-1 (A) 4.1 22:13:53 10° NW 22:21:25 80° SW 22:25:00 40° SSE
COSMOS 2455 3.1 22:17:53 16° SW 22:22:40 68° NW 22:28:42 10° NNE
Meteor 1-27 Rocket 4.3 22:18:24 10° NNW 22:23:50 49° W 22:25:47 35° SW
Lacrosse 5 3.0 22:25:50 29° E 22:25:50 29° E 22:28:45 10° ENE
Meteor 1-20 Rocket 4.1 22:23:03 53° S 22:24:28 86° E 22:30:13 10° NNE
Cosmos 2333 Rocket 2.7 22:19:43 10° NW 22:25:07 46° WSW 22:26:23 40° SW
Nadezhda 2 Rocket 4.5 22:23:24 48° SSE 22:25:13 73° E 22:31:38 10° NNE
Cosmos 1452 Rocket 3.9 22:20:10 10° NNW 22:25:16 51° WSW 22:26:16 44° SW
H-2A R/B 4.4 22:21:56 10° N 22:25:55 44° WNW 22:27:05 35° WSW
COBE Rocket 3.6 22:26:51 73° S 22:27:18 88° WSW 22:32:03 10° NNW
Cosmos 972 4.5 22:28:19 59° S 22:29:22 80° ESE 22:34:32 10° NNE
BREEZE-M R/B 3.4 22:27:03 10° WSW 22:31:56 39° ENE 22:35:00 10° ENE
Cosmos 2297 Rocket 2.9 22:32:07 36° E 22:32:07 36° E 22:37:02 10° NE
Cosmos 2322 4.3 22:26:49 10° NW 22:32:12 43° WSW 22:33:25 38° SW
Cosmos 1500 4.1 22:34:30 42° NE 22:34:30 42° NE 22:37:24 10° NNE
Sich 1 3.1 22:34:10 66° WSW 22:34:26 68° W 22:38:46 10° N
Cosmos 1244 Rocket 4.4 22:34:47 53° S 22:36:22 81° E 22:42:36 10° N
Cosmos 2237 Rocket 2.5 22:32:27 10° NNW 22:38:07 61° ENE 22:39:29 47° ESE
Cosmos 1470 Rocket 4.4 22:43:08 37° ENE 22:43:08 37° ENE 22:46:34 10° NNE
Cosmos 1633 Rocket 3.1 22:44:03 68° ENE 22:44:03 68° ENE 22:48:06 10° NNE
BREEZE-M DEB (TANK) 4.0 22:40:34 10° WNW 22:42:20 21° W 22:42:20 21° W
Cosmos 2227 Rocket 3.1 22:44:30 33° E 22:44:30 33° E 22:49:14 10° NE
USA 234 3.5 22:42:59 23° ESE 22:47:13 67° NNE 22:53:43 10° NW
Cosmos 1110 Rocket 4.1 22:42:20 10° NNW 22:47:36 62° WSW 22:48:10 58° SW
APEX 4.3 22:48:05 53° SSW 22:49:37 90° ESE 22:56:21 10° NNE
Cosmos 1331 Rocket 4.0 22:44:54 10° NNW 22:50:05 65° WSW 22:50:32 62° SW
Cosmos 1666 Rocket 3.5 22:50:45 79° WNW 22:50:45 79° WNW 22:55:10 10° N
Cosmos 1340 Rocket 4.4 22:54:24 26° ENE 22:54:24 26° ENE 22:56:45 10° NNE
Cosmos 2219 Rocket 3.2 22:50:31 10° NW 22:55:26 32° WSW 22:56:08 31° WSW
NOSS 2-2 (E) 4.4 22:53:21 10° NW 22:58:47 84° NE 23:00:50 48° SE
Terra 4.2 22:57:53 11° WSW 22:59:22 13° W 23:01:31 10° WNW
Spot 4 4.2 23:03:05 52° WSW 23:03:16 52° W 23:08:00 10° NNW
SL-16 R/B 3.2 23:02:14 10° NNW 23:07:34 40° NE 23:09:38 29° E
Meteor 1-18 Rocket 4.3 23:04:06 10° NNW 23:09:52 64° W 23:10:44 56° SW
SL-08 R/B 4.5 23:11:22 54° SSW 23:12:49 75° W 23:19:01 10° N
ATLAS 5 CENTAUR R/B 2.8 23:08:52 10° NW 23:14:16 44° WSW 23:14:35 44° SW
Cosmos 1862 Rocket 3.9 23:10:12 10° NNW 23:14:06 58° WNW 23:14:06 58° WNW
COSMOS 2428 4.1 23:18:38 10° NW 23:23:09 25° WSW 23:23:31 24° WSW
NOSS 2-2 (C) 4.3 23:18:22 10° NW 23:23:45 82° SW 23:25:11 58° SSE
Meteor 2-4 Rocket 3.8 23:18:15 10° NNW 23:24:10 72° W 23:24:59 62° SSW
Cosmos 1666 3.5 23:26:25 50° NNW 23:26:25 50° NNW 23:29:24 10° N
Meteor 1-11 Rocket 4.1 23:25:58 46° ESE 23:26:20 47° E 23:31:37 10° NNE
Cosmos 1703 Rocket 3.8 23:25:39 10° N 23:29:38 64° NE 23:29:38 64° NE
Cosmos 1709 Rocket 4.1 23:30:39 55° SE 23:31:49 66° E 23:38:09 10° NNE
PSLV R/B 4.2 23:29:45 10° NNE 23:34:07 50° E 23:34:07 50° E
Cosmos 1992 Rocket 4.0 23:30:57 10° NNW 23:36:12 72° ENE 23:36:41 66° ESE
ALOS 2 3.6 23:36:46 37° W 23:36:46 37° W 23:40:23 10° NNW
Meteor 1-5 Rocket 4.3 23:35:45 62° SW 23:36:40 75° WNW 23:42:36 10° N
Cosmos 909 Rocket 4.2 23:36:15 56° S 23:37:40 73° ESE 23:45:23 10° NE
Cosmos 1745 Rocket 4.1 23:39:17 52° SW 23:40:40 67° WNW 23:46:58 10° N
Cosmos 2219 3.2 23:42:23 64° SW 23:43:17 81° WNW 23:49:05 10° NNE
CZ-2D R/B 4.3 23:41:43 10° ENE 23:44:15 13° E 23:45:32 12° ESE
Cosmos 1066 Rocket 4.3 23:41:52 10° N 23:47:46 77° ENE 23:48:43 62° SE
Cosmos 1269 Rocket 4.4 23:47:42 48° W 23:48:37 54° WNW 23:53:49 10° NNE
Meteor 1-13 Rocket 4.1 23:45:59 10° NNW 23:51:47 86° W 23:52:26 71° S
Timation 1 Rocket 4.2 23:51:21 66° SSW 23:52:15 87° ESE 23:58:17 10° NNE
